Hyannis, MA

8:45 AM EDT on July 22, 2017 (GMT -0400)
Barnstable Municipal-Boardman-Polando Field

Weather History for KHYA - February, 2011

Change the Weather History Date:

Sunday, February 20, 2011

  Actual Average Record
Temperature  
Mean Temperature 27 °F -  
Max Temperature 35 °F 39 °F 60 °F (1981)
Min Temperature 19 °F 23 °F 3 °F (2015)
Degree Days  
Heating Degree Days 38    
Moisture  
Dew Point 10 °F    
Average Humidity 51    
Maximum Humidity 68    
Minimum Humidity 38    
Precipitation  
Precipitation 0.00 in - - ()
Sea Level Pressure  
Sea Level Pressure 29.93 in    
Wind  
Wind Speed 15 mph (NW)    
Max Wind Speed 21 mph    
Max Gust Speed 33 mph    
Visibility 10 miles    
Events      
Averages and records for this station are not official NWS values.
T = Trace of Precipitation, MM = Missing Value Source: NWS Daily Summary

Daily Weather History Graph

Daily Weather History Graph

Search for Another Location

Airport or City:

Trip Planner

Search our weather history database for the weather conditions in past years. The results will help you decide how hot, cold, wet, or windy it might be!

Date:

Astronomy

Feb. 20, 2011 Rise Set
Actual Time 6:29 AM EST 5:20 PM EST
Civil Twilight 6:01 AM EST 5:48 PM EST
Nautical Twilight 5:29 AM EST 6:21 PM EST
Astronomical Twilight 4:57 AM EST 6:53 PM EST
Moon 8:41 PM EST (2/20) 7:20 AM EST (2/20)
Length of Visible Light 11h 46m
Length of Day
10h 50m
Waning Gibbous, 92% of the Moon is Illuminated
Feb 20
Waning Gibbous
Feb 24
Last Quarter
Mar 4
New
Mar 12
First Quarter
Mar 19
Full

Hourly Weather History & Observations

Time (EST) Temp. Windchill Dew Point Humidity Pressure Visibility Wind Dir Wind Speed Gust Speed Precip Events Conditions
12:56 AM 19.0 °F 3.6 °F 10.0 °F 68% 29.80 in 10.0 mi NW 18.4 mph 33.4 mph 0.00 in   Overcast
1:52 AM 19.4 °F 4.5 °F 10.4 °F 68% 29.80 in 10.0 mi NW 17.3 mph 26.5 mph N/A   Scattered Clouds
1:56 AM 19.4 °F 4.1 °F 10.4 °F 68% 29.80 in 10.0 mi NW 18.4 mph 29.9 mph N/A   Partly Cloudy
2:56 AM 19.9 °F 4.8 °F 8.1 °F 60% 29.82 in 10.0 mi NNW 18.4 mph 28.8 mph N/A   Clear
3:56 AM 19.9 °F 5.2 °F 7.0 °F 57% 29.86 in 10.0 mi NNW 17.3 mph 33.4 mph N/A   Clear
4:56 AM 19.9 °F 3.9 °F 7.0 °F 57% 29.88 in 10.0 mi NW 20.7 mph 32.2 mph N/A   Clear
5:56 AM 19.9 °F 4.3 °F 7.0 °F 57% 29.90 in 10.0 mi NNW 19.6 mph 33.4 mph N/A   Clear
6:56 AM 19.9 °F 5.2 °F 7.0 °F 57% 29.93 in 10.0 mi NW 17.3 mph 29.9 mph N/A   Clear
7:56 AM 21.0 °F 5.7 °F 7.0 °F 55% 29.96 in 10.0 mi NW 19.6 mph 28.8 mph N/A   Clear
8:56 AM 23.0 °F 9.2 °F 8.1 °F 53% 29.96 in 10.0 mi NNW 17.3 mph 28.8 mph N/A   Clear
9:56 AM 25.0 °F 11.3 °F 9.0 °F 51% 29.96 in 10.0 mi NNW 18.4 mph 26.5 mph N/A   Clear
10:56 AM 27.0 °F 13.9 °F 10.0 °F 49% 29.96 in 10.0 mi NNW 18.4 mph 29.9 mph N/A   Clear
11:56 AM 28.9 °F 16.9 °F 9.0 °F 43% 29.96 in 10.0 mi NNW 17.3 mph 24.2 mph N/A   Clear
12:56 PM 30.9 °F 18.7 °F 10.9 °F 43% 29.96 in 10.0 mi North 19.6 mph 27.6 mph N/A   Clear
1:56 PM 33.1 °F 23.4 °F 10.9 °F 40% 29.99 in 10.0 mi NW 13.8 mph - N/A   Clear
2:56 PM 34.0 °F 25.0 °F 10.9 °F 38% 29.98 in 10.0 mi NNW 12.7 mph 19.6 mph N/A   Clear
3:56 PM 35.1 °F 27.9 °F 12.9 °F 40% 29.98 in 10.0 mi NNW 9.2 mph 20.7 mph N/A   Clear
4:56 PM 33.1 °F - 14.0 °F 46% 29.97 in 10.0 mi Calm Calm - N/A   Clear
5:56 PM 32.0 °F 28.7 °F 10.9 °F 42% 29.98 in 10.0 mi NW 3.5 mph - N/A   Clear
6:56 PM 30.0 °F 26.5 °F 12.9 °F 49% 29.96 in 10.0 mi WNW 3.5 mph - N/A   Clear
7:56 PM 27.0 °F 23.0 °F 12.9 °F 56% 29.97 in 10.0 mi West 3.5 mph - N/A   Clear
8:56 PM 28.9 °F 25.2 °F 10.9 °F 47% 29.97 in 10.0 mi WSW 3.5 mph - N/A   Clear
9:56 PM 30.9 °F 25.2 °F 10.0 °F 42% 29.98 in 10.0 mi NW 5.8 mph - N/A   Clear
10:56 PM 30.0 °F 26.5 °F 12.0 °F 47% 29.96 in 10.0 mi WNW 3.5 mph - N/A   Clear
11:56 PM 30.9 °F 24.3 °F 10.9 °F 43% 29.96 in 10.0 mi NW 6.9 mph - N/A   Overcast